Zurück zum Katalog

STARLINK-34912

AktivKommunikationVLEO
NORAD 65378·PAYLOAD·🇺🇸 United States

Gestartet Aug 28, 2025 von Cape Canaveral Space Force Station

Loading…

Nächste Überflüge (nächste 24 Stunden)

TLE

AktuellSource: CelesTrak SupGP

Epoche: Sep 14, 2026, 21:00 UTC

1 65378C 25190AD  26257.87548611  .00020247  00000+0  59848-3 0  2576
2 65378  53.1602   8.3017 0001204  74.5333  18.5721 15.34366064    12

Verfolge STARLINK-34912 in Echtzeit mit AllMySat

Download on the App Store